Weather observations for the past three days for
Wauseon Fulton County Airport
Imperial (Metric)
Date Time (edt) Wind (mph) Vis. (mi.) Weather Sky Cond. Temperature (ºF) Relative Humidity Wind Chill (°F) Heat Index (°F) Pressure Precipitation (in)
Air Dwpt 6 hour altimeter (in) sea level (mb) 1 hr 3 hr 6 hr
Max. Min.
15 07:15 S 8 10.00 Fair CLR 71.6 71.6 100% 29.86 0.0
15 06:55 SW 7 10.00 Light Drizzle FEW070 SCT120 71.6 71.6 100% 29.86 0.0
15 06:35 S 7 10.00 NULL NULL 71.6 71.6 100% 29.85 0.0
15 06:15 SW 6 8.00 Light Rain NULL 71.6 71.6 100% 29.85 0.0
15 05:55 W 8 10.00 A Few Clouds FEW060 73.4 73.4 100% 29.88 0.0
15 05:35 SW 9 10.00 NULL NULL 73.4 73.4 100% 29.88 0.0
15 05:15 SW 9 10.00 NULL NULL 73.4 73.4 100% 29.87 0.0
15 04:55 SW 7 10.00 Fair CLR 73.4 73.4 100% 29.86 0.0
15 04:35 SW 7 G 15 7.00 NULL NULL 71.6 71.6 100% 29.87 0.0
15 04:15 S 7 6.00 Fog/Mist NULL 71.6 71.6 100% 29.87 0.0
15 03:55 S 9 6.00 Fog/Mist NULL 69.8 69.8 100% 29.86 0.0
15 03:35 S 9 6.00 Fog/Mist NULL 69.8 69.8 100% 29.87 0.0
15 03:15 S 7 6.00 Fog/Mist NULL 69.8 69.8 100% 29.88 0.0
15 02:55 S 7 6.00 Fog/Mist NULL 69.8 69.8 100% 29.89 0.0
15 02:35 S 6 6.00 Fog/Mist NULL 69.8 69.8 100% 29.89 0.0
15 02:15 S 6 8.00 NULL NULL 69.8 69.8 100% 29.9 0.0
15 01:55 SE 7 10.00 NULL NULL 69.8 69.8 100% 29.9 0.0
15 01:35 S 5 10.00 NULL NULL 71.6 71.6 100% 29.92 0.0
15 01:15 S 6 10.00 NULL NULL 71.6 71.6 100% 29.93 0.0
15 00:55 S 5 10.00 NULL NULL 71.6 71.6 100% 29.93 0.0
15 00:35 S 6 8.00 NULL NULL 71.6 71.6 100% 29.93 0.0
15 00:15 Calm 9.00 NULL NULL 69.8 69.8 100% 29.94 0.0
14 23:55 Calm 10.00 NULL NULL 71.6 71.6 100% 29.93 0.0
14 23:35 S 6 10.00 NULL NULL 71.6 71.6 100% 29.92 0.0
14 23:15 SW 3 10.00 NULL NULL 71.6 71.6 100% 29.92 0.0
14 22:55 SW 5 10.00 NULL NULL 71.6 71.6 100% 29.92 0.0
14 22:35 S 5 10.00 Fair CLR 71.6 71.6 100% 29.92 0.0
14 22:15 SW 5 10.00 Fair CLR 71.6 71.6 100% 29.93 0.0
14 21:55 S 6 10.00 NULL NULL 71.6 71.6 100% 29.93 0.0
14 21:35 S 6 10.00 Fair CLR 73.4 73.4 100% 29.94 0.0
14 21:15 SW 6 10.00 Fair CLR 75.2 75.2 100% 73 29.94 0.0
14 20:55 SW 7 10.00 Fair CLR 77 77 100% 78 29.94 0.0
14 20:35 SW 8 10.00 Fair CLR 77 77 100% 78 29.94 0.0
14 20:15 SW 8 G 14 10.00 Fair CLR 77 73.4 89% 78 29.94 0.0
14 19:55 SW 9 G 15 10.00 Fair CLR 78.8 71.6 79% 82 29.95 0.0
14 19:35 W 12 10.00 Fair CLR 78.8 71.6 79% 82 29.95 0.0
14 19:15 SW 13 G 22 10.00 Fair CLR 78.8 71.6 79% 82 29.95 0.0
14 18:55 SW 14 10.00 Fair CLR 78.8 73.4 84% 82 29.96 0.0
14 18:35 SW 14 10.00 Fair CLR 77 71.6 83% 78 29.95 0.0
14 18:15 SW 12 10.00 Fair CLR 77 71.6 83% 78 29.95 0.0
14 17:55 SW 10 10.00 Fair CLR 77 77 100% 78 29.95 0.0
14 17:35 W 12 10.00 Fair CLR 77 77 100% 78 29.97 0.0
14 17:15 SW 13 10.00 Fair CLR 77 77 100% 78 29.96 0.0
14 16:55 W 15 G 21 10.00 Fair CLR 77 77 100% 78 29.96 0.0
14 16:35 SW 14 G 20 10.00 A Few Clouds FEW012 77 77 100% 78 29.96 0.0
14 16:15 SW 18 10.00 Mostly Cloudy BKN012 75.2 75.2 100% 73 29.96 0.0
14 15:55 SW 16 G 24 10.00 Partly Cloudy FEW013 SCT021 SCT027 77 77 100% 78 29.95 0.0
14 15:35 SW 10 9.00 Mostly Cloudy SCT021 BKN029 80.6 80.6 100% 89 29.95 0.0
14 15:15 SW 13 8.00 Light Rain FEW023 SCT030 SCT038 80.6 80.6 100% 89 29.95 0.0
14 14:55 SW 12 G 18 9.00 Mostly Cloudy SCT025 BKN031 BKN038 82.4 78.8 89% 92 29.96 0.0
14 13:40 S 10 G 18 9.00 Mostly Cloudy BKN020 BKN026 84.2 77 79% 94 29.96 0.0
14 13:35 SW 12 G 18 9.00 Mostly Cloudy BKN020 BKN027 84.2 75.2 74% 92 29.97 0.0
14 13:15 SW 9 10.00 Overcast BKN020 OVC026 82.4 77 84% 91 29.99 0.0
14 12:55 SW 12 10.00 Overcast BKN020 OVC025 80.6 77 89% 87 30 0.0
14 12:35 SW 16 10.00 Mostly Cloudy BKN020 BKN055 82.4 75.2 79% 89 30.01 0.0
14 12:15 SW 13 G 18 10.00 A Few Clouds FEW019 80.6 75.2 84% 86 30.01 0.0
14 11:55 SW 12 G 20 10.00 Fair CLR 78.8 78.8 100% 83 30.01 0.0
14 11:35 SW 10 G 21 10.00 Fair CLR 77 77 100% 78 30.03 0.0
14 11:15 SW 14 10.00 Fair CLR 77 77 100% 78 30.03 0.0
14 10:55 S 15 10.00 Fair CLR 75.2 75.2 100% 73 30.03 0.0
14 10:35 S 15 G 21 10.00 Fair CLR 78.8 78.8 100% 83 30.03 0.0
14 10:15 S 13 10.00 Partly Cloudy SCT090 75.2 75.2 100% 73 30.03 0.0
14 09:55 SW 12 10.00 A Few Clouds FEW090 73.4 73.4 100% 30.03 0.0
14 09:35 SW 9 7.00 Light Rain CLR 71.6 71.6 100% 30.04 0.0
14 09:15 SW 10 6.00 Light Rain FEW030 FEW039 SCT075 69.8 69.8 100% 30.05 0.0
14 08:55 SW 15 3.00 Light Rain FEW030 SCT045 BKN070 69.8 69.8 100% 30.07 0.0
14 08:35 SW 6 10.00 Mostly Cloudy FEW065 BKN095 BKN110 71.6 71.6 100% 30.05 0.0
14 08:15 SW 6 10.00 Partly Cloudy SCT100 SCT120 71.6 71.6 100% 30.04 0.0
14 07:55 SW 6 10.00 Fair CLR 71.6 71.6 100% 30.04 0.0
14 07:35 SW 6 10.00 Light Drizzle CLR 69.8 69.8 100% 30.04 0.0
14 07:15 SW 8 9.00 Light Rain CLR 69.8 69.8 100% 30.05 0.0
14 06:55 W 8 9.00 Light Rain CLR 71.6 71.6 100% 30.05 0.0
14 06:35 W 9 10.00 Fair CLR 71.6 71.6 100% 30.04 0.0
14 06:15 W 10 10.00 Fair CLR 71.6 71.6 100% 30.05 0.0
14 05:55 W 13 G 20 10.00 NULL NULL 73.4 73.4 100% 30.06 0.0
14 05:35 W 12 10.00 NULL NULL 71.6 71.6 100% 30.06 0.0
14 05:15 SW 7 10.00 NULL NULL 71.6 71.6 100% 30.05 0.0
14 04:55 SW 8 10.00 NULL NULL 71.6 71.6 100% 30.05 0.0
14 04:35 SW 6 10.00 A Few Clouds FEW110 69.8 69.8 100% 30.05 0.0
14 04:15 SW 6 10.00 A Few Clouds FEW110 69.8 69.8 100% 30.05 0.0
14 03:55 S 6 10.00 Fair CLR 68 68 100% 30.06 0.0
14 03:35 S 6 10.00 Fair CLR 69.8 69.8 100% 30.06 0.0
14 03:15 S 6 10.00 NULL NULL 69.8 69.8 100% 30.06 0.0
14 02:55 S 6 10.00 NULL NULL 69.8 69.8 100% 30.07 0.0
14 02:35 Calm 10.00 NULL NULL 69.8 69.8 100% 30.07 0.0
14 02:15 S 3 10.00 NULL NULL 69.8 69.8 100% 30.08 0.0
14 01:55 Calm 10.00 NULL NULL 69.8 69.8 100% 30.08 0.0
14 01:35 Calm 10.00 NULL NULL 69.8 69.8 100% 30.09 0.0
14 01:15 Calm 10.00 Fair CLR 69.8 69.8 100% 30.09 0.0
14 00:55 Calm 10.00 Fair CLR 71.6 71.6 100% 30.1 0.0
14 00:35 Calm 10.00 Fair CLR 69.8 69.8 100% 30.1 0.0
14 00:15 SE 3 10.00 NULL NULL 71.6 71.6 100% 30.1 0.0
13 23:55 Calm 10.00 NULL NULL 73.4 73.4 100% 30.11 0.0
13 23:35 Calm 10.00 NULL NULL 73.4 73.4 100% 30.11 0.0
13 23:15 Calm 10.00 Fair CLR 75.2 75.2 100% 73 30.11 0.0
13 22:55 Calm 10.00 NULL NULL 73.4 73.4 100% 30.1 0.0
13 22:35 Calm 10.00 NULL NULL 75.2 75.2 100% 73 30.1 0.0
13 22:15 Calm 10.00 NULL NULL 75.2 75.2 100% 73 30.11 0.0
13 21:55 Calm 10.00 Fair CLR 77 77 100% 78 30.1 0.0
13 21:35 Calm 10.00 Fair CLR 78.8 71.6 79% 82 30.1 0.0
13 21:15 Calm 10.00 Fair CLR 78.8 69.8 74% 81 30.1 0.0
13 20:55 W 3 10.00 Fair CLR 80.6 69.8 70% 84 30.11 0.0
13 20:35 W 3 9.00 Fair CLR 82.4 69.8 66% 86 30.11 0.0
13 20:15 W 3 10.00 Fair CLR 84.2 68 58% 87 30.12 0.0
13 19:35 Calm 10.00 Fair CLR 86 66.2 52% 88 30.12 0.0
13 19:15 W 5 10.00 Fair CLR 87.8 64.4 46% 89 30.11 0.0
13 18:55 SW 6 10.00 Fair CLR 87.8 64.4 46% 89 30.11 0.0
13 18:35 W 5 10.00 Fair CLR 87.8 64.4 46% 89 30.11 0.0
13 18:15 S 6 10.00 Fair CLR 87.8 68 52% 91 30.11 0.0
13 17:55 S 6 10.00 Fair CLR 87.8 68 52% 91 30.12 0.0
13 17:35 S 6 10.00 Fair CLR 87.8 68 52% 91 30.13 0.0
13 17:15 SE 7 10.00 Partly Cloudy SCT047 89.6 66.2 46% 92 30.13 0.0
13 16:55 S 8 10.00 Mostly Cloudy BKN049 89.6 68 49% 93 30.14 0.0
13 16:35 S 8 10.00 Partly Cloudy SCT049 87.8 66.2 49% 90 30.14 0.0
13 16:15 Calm 10.00 Mostly Cloudy SCT049 BKN055 BKN065 89.6 66.2 46% 92 30.15 0.0
13 15:55 Calm 10.00 Mostly Cloudy SCT046 BKN055 BKN070 86 64.4 49% 87 30.14 0.0
13 15:35 SE 6 10.00 Mostly Cloudy BKN046 BKN055 BKN065 86 66.2 52% 88 30.15 0.0
13 15:15 Calm 10.00 Overcast BKN045 BKN050 OVC065 84.2 66.2 55% 87 30.15 0.0
13 14:55 Calm 10.00 Overcast BKN044 OVC050 86 66.2 52% 88 30.15 0.0
13 14:35 SE 7 9.00 Mostly Cloudy SCT042 BKN048 BKN070 86 68 55% 89 30.16 0.0
13 14:15 Calm 9.00 Mostly Cloudy BKN042 BKN050 86 68 55% 89 30.16 0.0
13 13:55 Calm 10.00 Mostly Cloudy FEW042 SCT050 BKN060 84.2 66.2 55% 87 30.17 0.0
13 13:35 Vrbl 5 10.00 Partly Cloudy FEW048 SCT055 86 68 55% 89 30.17 0.0
13 13:15 S 6 10.00 Partly Cloudy FEW035 FEW041 SCT060 84.2 66.2 55% 87 30.18 0.0
13 12:55 Calm 10.00 Partly Cloudy FEW060 SCT075 86 66.2 52% 88 30.18 0.0
13 12:35 S 5 10.00 Fair CLR 86 66.2 52% 88 30.18 0.0
13 12:15 Vrbl 5 10.00 Fair CLR 84.2 68 58% 87 30.18 0.0
13 11:55 S 6 9.00 Fair CLR 84.2 68 58% 87 30.18 0.0
13 11:35 Calm 10.00 Fair CLR 84.2 69.8 62% 88 30.18 0.0
13 11:15 Calm 10.00 Fair CLR 82.4 68 62% 85 30.18 0.0
13 10:55 Calm 10.00 Fair CLR 82.4 68 62% 85 30.18 0.0
13 10:35 S 5 10.00 Fair CLR 80.6 68 66% 83 30.19 0.0
13 10:15 S 6 10.00 Fair CLR 80.6 68 66% 83 30.19 0.0
13 09:55 S 6 10.00 Fair CLR 78.8 69.8 74% 81 30.19 0.0
13 09:35 SE 5 10.00 Fair CLR 78.8 69.8 74% 81 30.2 0.0
13 09:15 E 5 10.00 Fair CLR 77 77 100% 78 30.2 0.0
13 08:55 SE 5 10.00 Fair CLR 75.2 75.2 100% 73 30.2 0.0
13 08:35 Calm 10.00 Fair CLR 75.2 75.2 100% 73 30.19 0.0
13 08:15 Calm 9.00 Fair CLR 71.6 71.6 100% 30.19 0.0
13 07:55 Calm 5.00 Fog/Mist CLR 69.8 69.8 100% 30.19 0.0
13 07:35 Calm 3.00 Fog/Mist CLR 68 68 100% 30.18 0.0
13 07:15 Calm 3.00 Fog/Mist CLR 66.2 66.2 100% 30.18 0.0
13 06:55 Calm 1.50 Fog/Mist CLR 66.2 66.2 100% 30.18 0.0
13 06:35 Calm 0.15 Fog VV000 66.2 66.2 100% 30.17 0.0
13 06:15 Calm 0.15 Fog VV000 66.2 66.2 100% 30.17 0.0
13 05:55 Calm 0.75 Fog/Mist VV005 66.2 66.2 100% 30.17 0.0
13 05:35 Calm 0.25 Fog VV002 66.2 66.2 100% 30.16 0.0
13 05:15 Calm 0.25 Fog VV002 66.2 66.2 100% 30.16 0.0
13 04:55 Calm 2.00 Fog/Mist CLR 66.2 66.2 100% 30.15 0.0
13 04:35 NE 3 3.00 Fog/Mist CLR 66.2 66.2 100% 30.16 0.0
13 04:15 NE 5 4.00 Fog/Mist NULL 68 68 100% 30.15 0.0
13 03:55 NE 5 4.00 Fog/Mist CLR 68 68 100% 30.15 0.0
13 03:35 N 3 5.00 Fog/Mist FEW037 68 68 100% 30.15 0.0
13 03:15 NE 3 7.00 A Few Clouds FEW037 68 68 100% 30.15 0.0
13 02:55 NE 3 8.00 NULL NULL 68 68 100% 30.14 0.0
13 02:35 NE 5 9.00 NULL NULL 68 68 100% 30.15 0.0
13 02:15 Calm 9.00 NULL NULL 69.8 69.8 100% 30.15 0.0
13 01:55 Calm 10.00 NULL NULL 69.8 69.8 100% 30.15 0.0
13 01:35 E 3 9.00 NULL NULL 68 68 100% 30.15 0.0
13 01:15 NE 5 9.00 NULL NULL 69.8 69.8 100% 30.15 0.0
13 00:50 NE 3 10.00 Fair CLR 71.6 71.6 100% 30.15 0.0
13 00:35 NE 3 10.00 NULL NULL 71.6 71.6 100% 30.15 0.0
13 00:15 NE 5 10.00 NULL NULL 69.8 69.8 100% 30.15 0.0
12 23:55 E 3 10.00 NULL NULL 71.6 71.6 100% 30.14 0.0
12 23:35 Calm 10.00 NULL NULL 71.6 71.6 100% 30.14 0.0
12 23:15 Calm 10.00 NULL NULL 71.6 71.6 100% 30.15 0.0
12 22:55 E 3 10.00 NULL NULL 71.6 71.6 100% 30.14 0.0
12 22:35 E 5 10.00 Fair CLR 71.6 71.6 100% 30.14 0.0
12 22:15 NE 6 10.00 Fair CLR 71.6 71.6 100% 30.14 0.0
12 21:55 NE 5 10.00 Fair CLR 73.4 73.4 100% 30.13 0.0
12 21:20 NE 5 10.00 Fair CLR 73.4 73.4 100% 30.12 0.0
12 21:15 E 5 10.00 Fair CLR 75.2 75.2 100% 73 30.12 0.0
12 20:55 E 6 10.00 Fair CLR 77 77 100% 78 30.12 0.0
12 20:35 E 6 10.00 Fair CLR 77 77 100% 78 30.12 0.0
12 20:15 NE 6 10.00 Fair CLR 78.8 75.2 89% 82 30.11 0.0
12 19:55 NE 3 10.00 Fair CLR 80.6 71.6 74% 85 30.11 0.0
12 19:35 E 7 10.00 Fair CLR 82.4 69.8 66% 86 30.1 0.0
12 19:15 E 7 10.00 A Few Clouds FEW042 82.4 68 62% 85 30.1 0.0
12 18:55 E 9 9.00 A Few Clouds FEW042 84.2 68 58% 87 30.1 0.0
12 18:35 NE 6 10.00 A Few Clouds FEW044 84.2 68 58% 87 30.1 0.0
12 18:15 NE 5 10.00 A Few Clouds FEW046 84.2 66.2 55% 87 30.1 0.0
12 17:55 Calm 10.00 Light Drizzle FEW037 FEW048 SCT055 84.2 66.2 55% 87 30.1 0.0
12 17:35 E 6 10.00 Light Drizzle SCT037 SCT048 BKN055 84.2 66.2 55% 87 30.1 0.0
12 17:15 Vrbl 3 9.00 Light Drizzle CLR 86 66.2 52% 88 30.1 0.0
12 16:55 NE 6 10.00 Light Drizzle FEW041 BKN048 84.2 64.4 51% 86 30.1 0.0
12 16:35 NE 6 10.00 Light Drizzle FEW040 SCT047 SCT050 84.2 66.2 55% 87 30.11 0.0
12 16:15 Vrbl 3 10.00 Light Drizzle SCT040 84.2 64.4 51% 86 30.11 0.0
12 15:55 Calm 10.00 Mostly Cloudy BKN041 84.2 64.4 51% 86 30.11 0.0
12 15:35 SE 5 10.00 Light Drizzle FEW040 FEW048 86 66.2 52% 88 30.12 0.0
12 15:15 Vrbl 5 9.00 Light Drizzle FEW034 SCT043 SCT050 86 66.2 52% 88 30.12 0.0
12 14:55 SE 6 10.00 A Few Clouds FEW034 FEW049 84.2 66.2 55% 87 30.12 0.0
12 14:35 SE 6 10.00 Light Drizzle FEW032 FEW055 82.4 66.2 58% 85 30.13 0.0
12 14:15 Vrbl 3 10.00 Light Drizzle FEW032 SCT055 82.4 66.2 58% 85 30.13 0.0
12 13:55 Vrbl 5 9.00 Light Drizzle SCT060 82.4 66.2 58% 85 30.13 0.0
12 13:35 E 7 10.00 Light Drizzle FEW027 SCT034 BKN065 82.4 68 62% 85 30.14 0.0
12 09:25 NE 8 10.00 Light Drizzle FEW049 SCT065 BKN075 71.6 71.6 100% 30.15 0.0
12 09:15 NE 9 10.00 Light Drizzle SCT065 BKN080 BKN090 69.8 69.8 100% 30.14 0.0
12 08:55 NE 7 10.00 Overcast BKN050 BKN070 OVC085 68 68 100% 30.14 0.0
12 08:35 NE 9 10.00 Overcast OVC050 68 68 100% 30.14 0.0
12 08:15 N 9 10.00 Overcast FEW030 OVC050 68 68 100% 30.13 0.0
12 07:55 N 9 1.75 Rain FEW004 SCT028 BKN033 66.2 66.2 100% 30.13 0.0
12 07:35 N 6 3.00 Light Rain FEW004 SCT029 OVC050 66.2 66.2 100% 30.13 0.0
Date Time (edt) Wind (mph) Vis. (mi.) Weather Sky Cond. Air Dwpt Max. Min. Relative Humidity Wind Chill (°F) Heat Index (°F) altimeter (in) sea level (mb) 1 hr 3 hr 6 hr
6 hour
Temperature (ºF) Pressure Precipitation (in)